Effective Sunday, March 17, 2024, the National Weather Service National Data Buoy Center will discontinue its Dial-A-Buoy Interactive Voice Response system. For more information, see Service Change Notice 24-06 (PDF).

Station APAM2 - 8575512 - Annapolis, MD Image indicating link to RSS feed of recent meteorological observations for station APAM2


Conditions at APAM2 as of
(1:48 am EST)
0648 GMT on 02/23/2024:
     

Click on the graph icon in the table below to see a time series plot of the last five days of that observation.

5-day plot - Wind Direction Wind Direction (WDIR):WNW ( 300 deg true )
5-day plot - Wind Speed Wind Speed (WSPD): 5.1 kts
5-day plot - Wind Gust Wind Gust (GST): 5.1 kts
5-day plot - Atmospheric Pressure Atmospheric Pressure (PRES):29.54 in
5-day plot - Air Temperature Air Temperature (ATMP): 43.2 °F
5-day plot - Water Temperature Water Temperature (WTMP): 46.9 °F
5-day plot - Wind Chill Wind Chill (CHILL): 39.6 °F
5-day plot -  Wind Speed, Wind Gust and Atmospheric Pressure Combined plot of Wind Speed, Gust, and Air Pressure
NOS Water Level Observation Network Water Level
Previous observations
TIME
(EST)
5-day plot - Wind Direction
WDIR
 
5-day plot - Wind Speed
WSPD
kts
5-day plot - Wind Gust
GST
kts
5-day plot - Wave Height
WVHT
ft
5-day plot - Dominant Wave Period
DPD
sec
5-day plot - Average Wave Period
APD
sec
5-day plot - Mean Wave Direction
MWD
 
5-day plot - Atmospheric Pressure
PRES
in
5-day plot - Pressure Tendency
PTDY
in
5-day plot - Air Temperature
ATMP
°F
5-day plot - Water Temperature
WTMP
°F
5-day plot - Dew Point
DEWP
°F
5-day plot - Salinity
SAL
psu
5-day plot - Visibility
VIS
nmi
5-day plot - Tide (above MLLW)
TIDE
ft
2024-02-23 01:42 amWNW 4.1 5.1----29.54- 43.3 46.9----
2024-02-23 01:36 amWNW 4.1 5.1----29.55- 43.5 46.9----
2024-02-23 01:30 amWNW 4.1 5.1----29.55- 43.5 46.9----
2024-02-23 01:24 am W 4.1 5.1----29.55- 43.3 46.9----
2024-02-23 01:18 amWNW 2.9 4.1----29.55- 43.3 46.9----
2024-02-23 01:12 amWNW 4.1 4.1----29.56- 43.5 46.9----
2024-02-23 01:06 amWNW 2.9 4.1----29.56- 43.9 46.9----
2024-02-23 01:00 amWNW 1.9 2.9----29.56-0.09 43.9 46.9----
2024-02-23 12:54 amWNW 2.9 2.9----29.56- 44.1 46.9----
2024-02-23 12:48 amWNW 2.9 2.9----29.56- 44.4 46.9----
2024-02-23 12:42 amWNW 1.9 1.9----29.56- 44.2 46.9----
2024-02-23 12:36 am NW 1.0 1.0----29.57- 44.2 46.9----
2024-02-23 12:30 am- 0.0 1.0----29.57- 45.0 46.9----
2024-02-23 12:24 am- 0.0 1.0----29.57- 45.1 46.9----
2024-02-23 12:18 am- 0.0 1.0----29.57- 45.3 46.9----
2024-02-23 12:12 amESE 1.0 1.9----29.58- 45.5 46.9----
2024-02-23 12:06 amESE 1.9 2.9----29.58- 45.9 46.9----
2024-02-23 12:00 am SE 1.0 1.9----29.58-0.08 45.9 46.9----
2024-02-22 11:54 pm- 0.0 2.9----29.59- 45.9 46.9----
2024-02-22 11:48 pm SE 1.9 4.1----29.59- 45.9 46.9----
2024-02-22 11:42 pmSSE 2.9 7.0----29.59- 45.9 46.9----
2024-02-22 11:36 pm SE 4.1 6.0----29.59- 45.9 47.1----
2024-02-22 11:30 pm SE 2.9 8.0----29.60- 45.9 47.1----
2024-02-22 11:24 pm SE 6.0 9.9----29.60- 46.0 46.9----
2024-02-22 11:18 pm SE 6.0 9.9----29.60- 46.0 47.1----
2024-02-22 11:12 pm SE 6.0 8.0----29.60- 46.0 47.1----
2024-02-22 11:06 pm SE 4.1 8.9----29.61- 46.0 47.1----
2024-02-22 11:00 pmSSE 5.1 11.1----29.61-0.11 46.0 47.1----
2024-02-22 10:54 pm SE 7.0 13.0----29.61- 46.2 47.1----
2024-02-22 10:48 pmSSE 6.0 11.1----29.61- 46.0 47.1----
2024-02-22 10:42 pm SE 7.0 12.0----29.62- 46.0 47.1----
2024-02-22 10:36 pm SE 8.9 14.0----29.62- 46.2 47.1----
2024-02-22 10:30 pm SE 6.0 11.1----29.62- 45.9 47.1----
2024-02-22 10:24 pm SE 5.1 7.0----29.63- 45.5 47.1----
2024-02-22 10:18 pm E 2.9 5.1----29.64- 44.4 46.9----
2024-02-22 10:12 pm E 1.0 6.0----29.64- 44.1 46.9----
2024-02-22 10:06 pmESE 1.9 4.1----29.64- 44.2 46.9----
2024-02-22 10:00 pm E 4.1 5.1----29.64-0.12 44.4 46.9----
2024-02-22 09:54 pm E 4.1 5.1----29.65- 44.6 46.9----
2024-02-22 09:48 pm E 4.1 5.1----29.65- 44.2 46.9----
2024-02-22 09:42 pm E 4.1 4.1----29.66- 44.1 46.9----
2024-02-22 09:36 pm E 2.9 5.1----29.66- 44.4 46.9----
2024-02-22 09:30 pmESE 2.9 5.1----29.67- 44.1 46.9----
2024-02-22 09:24 pm E 5.1 5.1----29.66- 44.1 46.9----
2024-02-22 09:18 pmESE 1.9 2.9----29.67- 44.4 46.9----
2024-02-22 09:12 pm SE 1.9 7.0----29.68- 44.4 46.9----
2024-02-22 09:06 pmESE 6.0 8.9----29.67- 44.8 46.9----
2024-02-22 09:00 pmESE 6.0 8.0----29.67-0.11 44.8 46.9----
2024-02-22 08:54 pm E 6.0 8.0----29.67- 44.6 47.1----
2024-02-22 08:48 pm E 6.0 8.0----29.67- 44.8 47.1----
2024-02-22 08:42 pm E 6.0 7.0----29.68- 44.4 46.9----
2024-02-22 08:36 pm E 5.1 6.0----29.69- 44.4 46.9----
2024-02-22 08:30 pm E 5.1 7.0----29.70- 44.6 46.9----
2024-02-22 08:24 pmESE 5.1 6.0----29.70- 44.8 47.1----
2024-02-22 08:18 pm E 4.1 8.0----29.71- 44.8 46.9----
2024-02-22 08:12 pmESE 6.0 8.0----29.71- 44.8 46.9----
2024-02-22 08:06 pmESE 5.1 7.0----29.71- 44.4 46.9----
2024-02-22 08:00 pmESE 2.9 5.1----29.72-0.03 44.2 46.9----
2024-02-22 07:54 pmESE 5.1 6.0----29.73- 45.0 46.9----
2024-02-22 07:48 pm E 5.1 6.0----29.73- 44.6 46.9----
2024-02-22 07:42 pm E 5.1 8.0----29.74- 44.8 46.9----
2024-02-22 07:36 pm E 7.0 8.9----29.74- 45.0 46.9----
2024-02-22 07:30 pm E 8.0 8.9----29.74- 45.3 46.9----
2024-02-22 07:24 pm E 6.0 7.0----29.75- 46.0 46.9----
2024-02-22 07:18 pmENE 5.1 6.0----29.76- 46.2 46.9----
2024-02-22 07:12 pmESE 1.0 1.9----29.76- 45.9 46.9----
2024-02-22 07:06 pm SE 1.0 1.9----29.76- 45.7 46.9----
2024-02-22 07:00 pm SE 1.9 4.1----29.76-0.02 45.7 46.9----
2024-02-22 06:54 pm E 5.1 5.1----29.75- 45.9 46.9----
2024-02-22 06:48 pm E 5.1 6.0----29.75- 46.0 46.9----
2024-02-22 06:42 pm E 5.1 7.0----29.76- 45.9 46.9----
2024-02-22 06:36 pm E 6.0 7.0----29.75- 45.5 46.9----
2024-02-22 06:30 pm E 4.1 6.0----29.76-- 46.9----
2024-02-22 06:24 pm E 5.1 7.0----29.76-- 46.9----
2024-02-22 06:00 pmSSE 5.1 13.0----29.78-0.06- 46.9----
2024-02-22 05:54 pmSSE 5.1 11.1----29.78-- 46.9----
2024-02-22 05:48 pm SE 8.9 14.0----29.77- 48.2 47.1----
2024-02-22 05:42 pmSSE 7.0 13.0----29.77- 48.2 47.1----
2024-02-22 05:36 pm SE 8.9 14.0----29.77- 48.2 46.9----
2024-02-22 05:30 pmSSE 8.9 13.0----29.76- 47.8 46.9----
2024-02-22 05:24 pm SE 8.9 14.0----29.75- 47.8 46.9----
2024-02-22 05:18 pm SE 7.0 12.0----29.75- 47.5 46.9----
2024-02-22 05:12 pm SE 7.0 12.0----29.75- 47.1 46.9----
2024-02-22 05:06 pm SE 9.9 15.9----29.74- 47.1 47.1----
2024-02-22 05:00 pmESE 5.1 8.0----29.75-0.10 46.0 47.1----
2024-02-22 04:54 pm E 6.0 8.9----29.75- 44.8 46.9----
2024-02-22 04:48 pm E 7.0 8.0----29.75- 44.6 46.9----
2024-02-22 04:42 pmESE 5.1 6.0----29.75- 45.0 47.1----
2024-02-22 04:36 pmESE 4.1 6.0----29.75- 45.3 47.1----
2024-02-22 04:30 pmESE 5.1 8.0----29.75- 45.1 46.9----
2024-02-22 04:24 pmESE 5.1 7.0----29.75- 45.1 46.9----
2024-02-22 04:18 pm E 7.0 8.0----29.76- 44.8 46.9----
2024-02-22 04:12 pmESE 5.1 8.0----29.77- 45.0 46.9----
2024-02-22 04:06 pmESE 6.0 7.0----29.78- 45.1 46.9----
2024-02-22 04:00 pm E 5.1 5.1----29.78-0.13 43.3 47.1----
2024-02-22 03:54 pm E 4.1 5.1----29.79- 43.5 46.9----
2024-02-22 03:48 pmESE 4.1 5.1----29.79- 44.2 46.9----
2024-02-22 03:42 pmESE 4.1 5.1----29.80- 44.6 46.9----
2024-02-22 03:36 pmESE 5.1 8.0----29.79- 44.6 46.9----
2024-02-22 03:30 pmESE 5.1 7.0----29.79- 44.8 46.9----
2024-02-22 03:24 pmESE 6.0 7.0----29.81- 45.0 46.9----
2024-02-22 03:18 pm SE 5.1 8.9----29.81- 45.1 46.9----
2024-02-22 03:12 pm SE 5.1 9.9----29.82- 45.0 46.9----
2024-02-22 03:06 pm SE 5.1 8.9----29.83- 45.1 46.9----
2024-02-22 03:00 pmSSE 6.0 11.1----29.83-0.14 45.1 46.9----
2024-02-22 02:54 pmSSE 5.1 8.9----29.83- 45.1 46.9----
2024-02-22 02:48 pmSSE 5.1 8.0----29.84- 45.0 46.9----
2024-02-22 02:42 pmSSE 6.0 8.0----29.84- 45.0 46.9----
2024-02-22 02:36 pmSSE 5.1 8.9----29.84- 45.1 46.9----
2024-02-22 02:30 pm S 4.1 9.9----29.85- 45.1 46.9----
2024-02-22 02:24 pmSSE 6.0 12.0----29.84- 45.0 46.9----
2024-02-22 02:18 pm SE 7.0 12.0----29.85- 45.0 46.9----
2024-02-22 02:12 pm SE 8.0 13.0----29.85- 45.0 46.9----
2024-02-22 02:06 pm SE 7.0 12.0----29.85- 44.6 46.9----
2024-02-22 02:00 pm SE 7.0 12.0----29.85-0.16 44.8 46.9----
2024-02-22 01:54 pm SE 6.0 11.1----29.85- 44.6 46.9----
2024-02-22 01:48 pm SE 5.1 11.1----29.85- 44.2 46.9----
2024-02-22 01:42 pm SE 8.0 12.0----29.86- 44.1 46.9----
2024-02-22 01:36 pm SE 8.9 12.0----29.87- 43.9 46.9----
2024-02-22 01:30 pm SE 6.0 12.0----29.88- 43.9 46.9----
2024-02-22 01:24 pmESE 7.0 11.1----29.88- 43.7 46.9----
2024-02-22 01:18 pm SE 8.0 12.0----29.89- 43.7 46.9----
2024-02-22 01:12 pmSSE 8.0 12.0----29.89- 43.5 46.9----
2024-02-22 01:06 pm SE 8.0 12.0----29.90- 43.5 46.9----
2024-02-22 01:00 pm SE 6.0 9.9----29.91-0.13 43.7 46.9----
2024-02-22 12:54 pm SE 6.0 12.0----29.92- 43.5 46.9----
2024-02-22 12:48 pmSSE 7.0 12.0----29.93- 43.5 46.9----
2024-02-22 12:42 pmSSE 7.0 11.1----29.93- 43.3 46.9----
2024-02-22 12:36 pmSSE 6.0 8.9----29.94- 43.2 46.9----
2024-02-22 12:30 pmSSE 7.0 13.0----29.94- 42.8 46.9----
2024-02-22 12:24 pmSSE 5.1 11.1----29.94- 42.8 46.9----
2024-02-22 12:18 pmSSE 7.0 11.1----29.96- 42.4 46.9----
2024-02-22 12:12 pm SE 8.0 12.0----29.96- 42.3 46.9----
2024-02-22 12:06 pm SE 6.0 9.9----29.96- 42.3 46.9----
2024-02-22 12:00 pm SE 5.1 8.9----29.97-0.10 42.1 46.9----
2024-02-22 11:54 amSSE 5.1 12.0----29.97- 41.9 46.9----
2024-02-22 11:48 am SE 6.0 11.1----29.97- 41.9 46.9----
2024-02-22 11:42 amSSE 7.0 11.1----29.98- 41.7 46.9----
2024-02-22 11:36 am SE 8.0 14.0----29.98- 41.7 46.8----
2024-02-22 11:30 am SE 8.0 12.0----29.98- 41.9 46.9----
2024-02-22 11:24 am SE 8.0 12.0----29.98- 41.9 46.9----
2024-02-22 11:18 am SE 8.9 14.0----29.99- 41.9 46.8----
2024-02-22 11:12 amESE 8.9 15.0----29.99- 41.7 46.8----
2024-02-22 11:06 am SE 8.9 14.0----30.00- 41.5 46.8----
2024-02-22 11:00 am SE 8.9 14.0----30.01-0.09 41.2 46.8----
2024-02-22 10:54 amESE 8.0 12.0----30.01- 41.2 46.8----
2024-02-22 10:48 amESE 8.9 15.0----30.01-------
2024-02-22 10:42 amESE 8.9 13.0----30.01-------
2024-02-22 10:36 amESE 8.9 13.0----30.01-------
2024-02-22 10:30 am SE 6.0 11.1----30.02- 41.0 46.8----
2024-02-22 10:24 am SE 7.0 14.0----30.03- 40.6 46.8----
2024-02-22 10:18 amSSE 8.0 12.0----30.03- 40.5 46.8----
2024-02-22 10:12 amSSE 4.1 12.0----30.04- 40.6 46.8----
2024-02-22 10:06 am SE 8.9 13.0----30.04- 40.3 46.8----
2024-02-22 10:00 amSSE 7.0 13.0----30.04-0.07 40.3 46.6----
2024-02-22 09:54 amSSE 7.0 12.0----30.05- 40.3 46.6----
2024-02-22 09:48 amSSE 5.1 11.1----30.05- 40.6 46.6----
2024-02-22 09:42 am SE 7.0 12.0----30.05- 40.3 46.6----
2024-02-22 09:36 am SE 7.0 11.1----30.06- 40.5 46.6----
2024-02-22 09:30 am SE 5.1 12.0----30.06- 40.1 46.8----
2024-02-22 09:24 am SE 7.0 11.1----30.06- 40.1 46.8----
2024-02-22 09:18 amSSE 7.0 11.1----30.06- 39.9 46.6----
2024-02-22 09:12 amSSE 6.0 11.1----30.06- 39.7 46.6----
2024-02-22 09:06 am SE 6.0 9.9----30.07- 39.7 46.6----
2024-02-22 09:00 amSSE 8.0 14.0----30.07-0.06 39.4 46.6----
2024-02-22 08:54 am SE 6.0 8.9----30.07- 39.6 46.6----
2024-02-22 08:48 am SE 8.0 12.0----30.07- 39.2 46.6----
2024-02-22 08:42 am SE 7.0 9.9----30.07- 39.2 46.6----
2024-02-22 08:36 am SE 4.1 7.0----30.08- 39.4 46.6----
2024-02-22 08:30 amSSE 6.0 8.9----30.08- 39.0 46.4----
2024-02-22 08:24 amSSE 5.1 8.0----30.09- 39.0 46.4----
2024-02-22 08:18 amSSE 5.1 7.0----30.09- 38.8 46.8----
2024-02-22 08:12 amSSE 4.1 7.0----30.09- 38.8 46.8----
2024-02-22 08:06 amSSE 4.1 6.0----30.09- 38.7 46.8----
2024-02-22 08:00 am SE 4.1 6.0----30.10-0.05 38.8 46.8----
2024-02-22 07:54 amSSE 2.9 7.0----30.10- 38.8 46.8----
2024-02-22 07:48 amSSE 4.1 7.0----30.10- 38.7 46.6----
2024-02-22 07:42 am SE 5.1 8.0----30.09- 38.3 46.6----
2024-02-22 07:36 am SE 5.1 9.9----30.09- 38.3 46.6----
2024-02-22 07:30 am SE 5.1 8.9----30.10- 38.5 46.6----
2024-02-22 07:24 am SE 6.0 9.9----30.10- 38.3 46.6----
2024-02-22 07:18 amSSE 4.1 7.0----30.10- 37.9 46.6----
2024-02-22 07:12 amSSE 5.1 8.0----30.10- 37.6 46.6----
2024-02-22 07:06 am SE 4.1 5.1----30.10- 36.5 46.6----
2024-02-22 07:00 amSSE 4.1 5.1----30.11-0.05 36.3 46.6----
2024-02-22 06:54 amSSE 4.1 6.0----30.11- 36.5 46.6----
2024-02-22 06:48 amSSE 2.9 5.1----30.11- 36.1 46.8----
2024-02-22 06:42 am SE 2.9 5.1----30.11- 36.0 46.8----
2024-02-22 06:36 am SE 1.9 4.1----30.11- 36.0 46.8----
2024-02-22 06:30 am SE 1.9 2.9----30.11- 35.8 46.8----
2024-02-22 06:24 amSSE 1.9 2.9----30.12- 35.6 46.8----
2024-02-22 06:18 amSSE 1.0 1.9----30.12- 34.9 46.8----
2024-02-22 06:12 amESE 1.0 1.9----30.12- 34.7 46.8----
2024-02-22 06:06 am- 0.0 1.9----30.13- 34.7 46.8----
2024-02-22 06:00 am- 0.0 1.0----30.13-0.05- 46.8----
2024-02-22 05:54 am- 0.0 0.0----30.13-- 46.8----
2024-02-22 05:48 am- 0.0 1.0----30.13- 34.2 46.8----
2024-02-22 05:42 am- 0.0 1.9----30.14- 34.2 46.8----
2024-02-22 05:36 am- 0.0 1.0----30.14- 34.2 46.8----
2024-02-22 05:30 am- 0.0 0.0----30.14- 34.0 46.9----
2024-02-22 05:24 am- 0.0 0.0----30.14- 34.0 46.9----
2024-02-22 05:18 am- 0.0 0.0----30.14- 34.0 46.9----
2024-02-22 05:12 am- 0.0 1.0----30.15- 34.0 46.9----
2024-02-22 05:06 am- 0.0 1.0----30.14- 34.2 46.9----
2024-02-22 05:00 amWNW 1.0 1.0----30.15-0.04 34.2 46.9----
2024-02-22 04:54 amWNW 1.0 1.9----30.15- 34.2 46.9----
2024-02-22 04:48 am W 1.0 2.9----30.16- 34.2 46.9----
2024-02-22 04:42 am W 1.9 2.9----30.16- 34.3 46.9----
2024-02-22 04:36 amWNW 2.9 2.9----30.16- 34.9 46.9----
2024-02-22 04:30 am W 1.0 1.9----30.17- 35.6 46.9----
2024-02-22 04:24 am W 1.0 1.9----30.16- 35.8 46.8----
2024-02-22 04:18 amWSW 1.0 1.0----30.16- 36.0 46.8----
2024-02-22 04:12 am- 0.0 2.9----30.16- 36.9 46.8----
2024-02-22 04:06 amSSE 1.9 2.9----30.16- 37.0 46.8----
2024-02-22 04:00 amSSE 1.9 2.9----30.16-0.05 37.2 46.8----
2024-02-22 03:54 amSSE 2.9 5.1----30.16- 37.2 46.8----
2024-02-22 03:48 amSSE 2.9 5.1----30.16- 37.4 46.8----
2024-02-22 03:42 amSSE 2.9 5.1----30.16- 37.4 46.8----
2024-02-22 03:36 amSSE 1.9 5.1----30.16- 37.6 46.8----
2024-02-22 03:30 am SE 2.9 5.1----30.16- 37.6 46.8----
2024-02-22 03:24 amSSE 2.9 5.1----30.16- 37.6 46.6----
2024-02-22 03:18 amSSE 4.1 6.0----30.17- 37.6 46.6----
2024-02-22 03:12 am SE 4.1 6.0----30.17- 37.4 46.6----
2024-02-22 03:06 amSSE 2.9 5.1----30.17- 37.4 46.6----
2024-02-22 03:00 am SE 4.1 6.0----30.17-0.05 37.4 46.6----
2024-02-22 02:54 amSSE 2.9 5.1----30.17- 37.4 46.6----
2024-02-22 02:48 amSSE 2.9 5.1----30.17- 37.2 46.6----
2024-02-22 02:42 amSSE 4.1 5.1----30.18- 37.0 46.6----
2024-02-22 02:36 amSSE 2.9 5.1----30.18- 37.0 46.6----
2024-02-22 02:30 amSSE 4.1 5.1----30.18- 37.2 46.6----
2024-02-22 02:24 amSSE 2.9 5.1----30.18- 37.4 46.6----
2024-02-22 02:18 am SE 4.1 5.1----30.19- 37.6 46.8----
2024-02-22 02:12 amSSE 2.9 7.0----30.19- 37.6 46.8----
2024-02-22 02:06 amESE 2.9 6.0----30.19- 37.6 46.8----
2024-02-22 02:00 am SE 4.1 7.0----30.19-0.06 37.8 46.8----
2024-02-22 01:54 am SE 5.1 9.9----30.19- 37.6 46.8----